Regional Weather Roundup
Issued by NWS

Home | Current Version | Previous Version | Graphics & Text | Print | Product List | Glossary On
Versions: 1 2 3 4 5 6 7 8 9 10 11 12 13 14 15 16 17 18 19 20 21 22 23 24 25 26 27 28 29 30 31 32 33 34 35 36 37 38 39 40 41 42 43 44 45 46 47 48 49 50
312
ASUS43 KTOP 180659
RWRKS

WEATHER ROUNDUP FOR KANSAS
NATIONAL WEATHER SERVICE GOODLAND KS
200 AM CDT WED OCT 18 2017

NOTE:  "FAIR" INDICATES FEW OR NO CLOUDS BELOW 12,000 FEET WITH NO
SIGNIFICANT WEATHER AND/OR OBSTRUCTIONS TO VISIBILITY.

KSZ001>006-013>018-027>032-041>047-180800-
NORTHWEST KANSAS

CITY           SKY/WX    TMP DP  RH WIND       PRES   REMARKS
GOODLAND       CLEAR     54  35  48 SW12      29.99F
HAYS           CLEAR     51  41  68 S7        29.99F
HILL CITY      CLEAR     55  43  63 SW10      29.97F
RUSSELL        CLEAR     55  44  66 S14       29.97F
$$

KSZ061>065-074>080-084>089-180800-
SOUTHWEST KANSAS

CITY           SKY/WX    TMP DP  RH WIND       PRES   REMARKS
DODGE CITY     CLEAR     51  39  63 S12       30.00F
ELKHART          N/A     52  36  54 W7          N/A
GARDEN CITY    CLEAR     46  39  76 S5        29.99F
GREAT BEND     CLEAR     51  42  71 S9        30.00F
LIBERAL        CLEAR     48  41  76 SW5       30.00F
$$

KSZ066>073-081>083-090>101-180800-
SOUTHEAST KANSAS

CITY           SKY/WX    TMP DP  RH WIND       PRES   REMARKS
CHANUTE        CLEAR     52  45  77 S8        30.11F
COFFEYVILLE    CLEAR     50  45  83 S7        30.12F
HUTCHINSON     CLEAR     52  46  80 SE9       30.04F
MEDICINE LODGE   N/A     53  43  68 MISG      30.03F
NEWTON         CLEAR     51  45  79 S9        30.06F
PARSONS        CLEAR     53  45  74 S6        30.13F
WICHITA INTL   CLEAR     52  46  80 S10       30.06S
WICHITA JABRA  CLEAR     52  47  83 S9        30.06F
WICHITA MCCONL CLEAR     54  45  72 S9        30.06F
WINFIELD       CLEAR     54  46  74 S9        30.09F
$$

KSZ007>012-019>026-033>040-048>060-102>105-180800-
NORTHEAST KANSAS

CITY           SKY/WX    TMP DP  RH WIND       PRES   REMARKS
CONCORDIA      CLEAR     54  46  74 S14       29.98F
EMPORIA        CLEAR     50  44  80 S14       30.07F
LAWRENCE       CLEAR     55  47  74 S7        30.08S
MANHATTAN      CLEAR     55  46  71 SW10      30.02F
OLATHE IND     CLEAR     50  45  83 S9        30.10S
OLATHE EXE     CLEAR     53  45  74 S9        30.09F
SALINA         CLEAR     56  47  71 S9        30.02S
TOPEKA BILLARD CLEAR     56  47  71 S6        30.06S
TOPEKA FORBES  CLEAR     55  47  74 S7        30.06S
$$




USA.gov is the U.S. government's official web portal to all federal, state and local government web resources and services.